Location: Coopersdale
(40.3556°N, 78.9372°W)
Time: 01:43:47
(UTC+00:00)

Transit 4A - Pass Details

Date: 29 January 2021
Orbit: 867 x 978 km, 66.8° (Epoch: 07 March)

Event Time Altitude Azimuth Distance (km) Brightness Sun altitude
Rises 06:41:27 0° 338° (NNW) 3,627 - -62.6°
Reaches altitude 10° 06:44:36 10° 353° (N) 2,659 - -62.2°
Maximum altitude 06:49:26 23° 44° (NE) 1,850 - -61.6°
Drops below altitude 10° 06:54:08 10° 96° (E) 2,588 - -61.0°
Sets 06:57:08 0° 111° (ESE) 3,506 - -60.5°
